TimeCST,TemperatureF,Dew PointF,Humidity,Sea Level PressureIn,VisibilityMPH,Wind Direction,Wind SpeedMPH,Gust SpeedMPH,PrecipitationIn,Events,Conditions,WindDirDegrees,DateUTC
12:15 AM,-0.4,-2.2,92,30.19,10.0,WSW,6.9,-,N/A,,Partly Cloudy,240,2013-01-03 06:15:00
12:35 AM,-2.2,-4.0,92,30.19,10.0,SW,4.6,-,N/A,,Clear,220,2013-01-03 06:35:00
12:55 AM,1.4,-0.4,92,30.19,10.0,Calm,Calm,-,N/A,,Clear,0,2013-01-03 06:55:00
1:15 AM,-2.2,-4.0,92,30.20,10.0,WSW,3.5,-,N/A,,Clear,250,2013-01-03 07:15:00
1:35 AM,-2.2,-4.0,92,30.19,10.0,WSW,3.5,-,N/A,,Clear,240,2013-01-03 07:35:00
1:55 AM,-4.0,-7.6,85,30.18,10.0,SSW,5.8,-,N/A,,Mostly Cloudy,210,2013-01-03 07:55:00
2:15 AM,-4.0,-7.6,85,30.17,10.0,SSW,6.9,-,N/A,,Scattered Clouds,200,2013-01-03 08:15:00
2:35 AM,-4.0,-7.6,85,30.17,10.0,SSW,6.9,-,N/A,,Clear,200,2013-01-03 08:35:00
2:55 AM,-4.0,-7.6,85,30.16,10.0,SSW,6.9,-,N/A,,Clear,200,2013-01-03 08:55:00
3:15 AM,-4.0,-7.6,85,30.16,10.0,SSW,6.9,-,N/A,,Clear,200,2013-01-03 09:15:00
3:35 AM,-4.0,-9.4,78,30.16,10.0,South,5.8,-,N/A,,Partly Cloudy,180,2013-01-03 09:35:00
3:55 AM,-2.2,-4.0,92,30.16,10.0,SSW,4.6,-,N/A,,Clear,210,2013-01-03 09:55:00
4:15 AM,-0.4,-2.2,92,30.15,10.0,SW,6.9,-,N/A,,Clear,220,2013-01-03 10:15:00
4:35 AM,-0.4,-2.2,92,30.14,10.0,SW,6.9,-,N/A,,Partly Cloudy,220,2013-01-03 10:35:00
4:55 AM,5.0,3.2,92,30.12,10.0,South,4.6,-,N/A,,Mostly Cloudy,190,2013-01-03 10:55:00
5:15 AM,8.6,6.8,92,30.12,10.0,WSW,11.5,-,N/A,Snow,Light Snow,250,2013-01-03 11:15:00
5:35 AM,8.6,6.8,92,30.10,10.0,SW,8.1,-,N/A,,Overcast,230,2013-01-03 11:35:00
5:55 AM,8.6,6.8,92,30.08,10.0,WSW,15.0,-,N/A,,Mostly Cloudy,250,2013-01-03 11:55:00
6:15 AM,8.6,6.8,92,30.06,10.0,WSW,16.1,-,N/A,,Clear,250,2013-01-03 12:15:00
6:35 AM,8.6,8.6,100,30.08,10.0,West,9.2,-,N/A,,Clear,280,2013-01-03 12:35:00
6:55 AM,10.4,8.6,92,30.06,10.0,Calm,Calm,-,N/A,,Clear,0,2013-01-03 12:55:00
7:15 AM,10.4,10.4,100,30.04,7.0,WSW,24.2,-,N/A,,Clear,250,2013-01-03 13:15:00
7:35 AM,12.2,10.4,92,30.04,9.0,WSW,19.6,-,N/A,,Clear,250,2013-01-03 13:35:00
7:55 AM,14.0,12.2,93,30.05,10.0,WSW,17.3,-,N/A,,Clear,250,2013-01-03 13:55:00
8:15 AM,14.0,14.0,100,30.04,10.0,WSW,13.8,-,N/A,,Scattered Clouds,240,2013-01-03 14:15:00
8:35 AM,14.0,14.0,100,30.02,1.5,WSW,23.0,27.6,N/A,,Overcast,240,2013-01-03 14:35:00
8:55 AM,14.0,14.0,100,30.00,0.5,WSW,25.3,31.1,N/A,Snow,Snow,240,2013-01-03 14:55:00
9:15 AM,14.0,14.0,100,29.99,0.2,WSW,27.6,33.4,N/A,Snow,Heavy Snow,240,2013-01-03 15:15:00
9:35 AM,14.0,14.0,100,29.98,0.8,WSW,27.6,33.4,N/A,,Overcast,240,2013-01-03 15:35:00
9:55 AM,14.0,14.0,100,29.98,1.0,WSW,26.5,-,N/A,,Mostly Cloudy,240,2013-01-03 15:55:00
10:35 AM,15.8,14.0,93,29.98,7.0,WSW,24.2,-,N/A,,Clear,240,2013-01-03 16:35:00
10:55 AM,15.8,14.0,93,29.97,7.0,SW,21.9,27.6,N/A,,Clear,230,2013-01-03 16:55:00
11:15 AM,15.8,15.8,100,29.96,3.0,WSW,25.3,31.1,N/A,,Clear,240,2013-01-03 17:15:00
11:35 AM,17.6,15.8,93,29.94,4.0,SW,24.2,-,N/A,,Clear,230,2013-01-03 17:35:00
11:55 AM,17.6,15.8,93,29.92,2.0,WSW,28.8,33.4,N/A,Snow,Light Snow,240,2013-01-03 17:55:00
12:15 PM,19.4,15.8,86,29.91,2.0,WSW,27.6,-,N/A,Snow,Light Snow,240,2013-01-03 18:15:00
12:35 PM,19.4,15.8,86,29.90,3.0,WSW,27.6,-,N/A,,Haze,240,2013-01-03 18:35:00
12:55 PM,23.0,17.6,80,29.89,2.0,WSW,28.8,35.7,N/A,,Haze,250,2013-01-03 18:55:00
1:15 PM,23.0,17.6,80,29.88,2.0,WSW,31.1,36.8,N/A,Rain,Freezing Rain,250,2013-01-03 19:15:00
1:35 PM,24.8,17.6,74,29.86,2.0,WSW,32.2,38.0,N/A,Rain,Freezing Rain,250,2013-01-03 19:35:00
1:55 PM,26.6,17.6,69,29.86,3.0,WSW,29.9,38.0,N/A,,Haze,250,2013-01-03 19:55:00
2:15 PM,26.6,17.6,69,29.85,3.0,West,32.2,38.0,N/A,Rain,Freezing Rain,260,2013-01-03 20:15:00
2:35 PM,26.6,17.6,69,29.85,3.0,WSW,28.8,36.8,N/A,Rain,Freezing Rain,250,2013-01-03 20:35:00
2:55 PM,24.8,17.6,74,29.85,8.0,WSW,27.6,-,N/A,,Clear,250,2013-01-03 20:55:00
3:15 PM,24.8,17.6,74,29.85,7.0,West,28.8,33.4,N/A,,Clear,260,2013-01-03 21:15:00
3:55 PM,26.6,15.8,64,29.84,10.0,West,26.5,32.2,N/A,,Clear,260,2013-01-03 21:55:00
4:15 PM,26.6,15.8,64,29.84,10.0,West,27.6,32.2,N/A,,Clear,260,2013-01-03 22:15:00
4:35 PM,26.6,15.8,64,29.84,9.0,WSW,26.5,34.5,N/A,,Clear,250,2013-01-03 22:35:00
4:55 PM,24.8,15.8,69,29.82,10.0,WSW,27.6,34.5,N/A,,Clear,250,2013-01-03 22:55:00
5:15 PM,24.8,15.8,69,29.83,5.0,West,27.6,34.5,N/A,,Haze,270,2013-01-03 23:15:00
5:35 PM,24.8,15.8,69,29.84,10.0,West,27.6,34.5,N/A,,Clear,270,2013-01-03 23:35:00
5:55 PM,24.8,15.8,69,29.83,10.0,West,24.2,31.1,N/A,,Clear,260,2013-01-03 23:55:00
6:15 PM,24.8,15.8,69,29.83,10.0,West,23.0,-,N/A,,Clear,260,2013-01-04 00:15:00
6:35 PM,24.8,15.8,69,29.83,10.0,West,21.9,-,N/A,,Clear,260,2013-01-04 00:35:00
6:55 PM,24.8,15.8,69,29.84,10.0,West,19.6,25.3,N/A,,Clear,260,2013-01-04 00:55:00
7:15 PM,24.8,15.8,69,29.84,10.0,West,18.4,-,N/A,,Clear,270,2013-01-04 01:15:00
7:35 PM,24.8,15.8,69,29.85,10.0,West,19.6,-,N/A,,Clear,280,2013-01-04 01:35:00
7:55 PM,26.6,15.8,64,29.85,10.0,West,17.3,-,N/A,,Clear,280,2013-01-04 01:55:00
8:15 PM,26.6,15.8,64,29.86,10.0,WNW,19.6,23.0,N/A,,Clear,290,2013-01-04 02:15:00
8:35 PM,28.4,15.8,59,29.86,10.0,WNW,17.3,-,N/A,,Clear,300,2013-01-04 02:35:00
8:55 PM,26.6,15.8,64,29.86,10.0,WNW,16.1,-,N/A,,Clear,300,2013-01-04 02:55:00
9:15 PM,26.6,15.8,64,29.87,10.0,WNW,11.5,-,N/A,,Clear,300,2013-01-04 03:15:00
9:35 PM,26.6,15.8,64,29.86,10.0,WNW,11.5,-,N/A,,Clear,290,2013-01-04 03:35:00
9:55 PM,24.8,15.8,69,29.88,10.0,NW,11.5,-,N/A,,Clear,310,2013-01-04 03:55:00
10:15 PM,24.8,15.8,69,29.89,10.0,WNW,10.4,-,N/A,,Clear,300,2013-01-04 04:15:00
10:35 PM,26.6,15.8,64,29.89,10.0,NW,12.7,-,N/A,,Clear,310,2013-01-04 04:35:00
10:55 PM,26.6,15.8,64,29.90,10.0,NW,16.1,-,N/A,,Clear,310,2013-01-04 04:55:00
11:15 PM,26.6,15.8,64,29.90,10.0,NW,16.1,-,N/A,,Clear,320,2013-01-04 05:15:00
11:35 PM,26.6,15.8,64,29.91,10.0,NW,15.0,-,N/A,,Clear,310,2013-01-04 05:35:00
11:55 PM,26.6,15.8,64,29.91,10.0,NW,11.5,-,N/A,,Clear,310,2013-01-04 05:55:00